Regional Weather Roundup
Issued by NWS Wilmington, NC

Home | Current Version | Previous Version | Text Only | Print | Product List | Glossary On
Versions: 1 2 3 4 5 6 7 8 9 10 11 12 13 14 15 16 17 18 19 20 21 22 23 24 25 26 27 28 29 30 31 32 33 34 35 36 37 38 39 40 41 42 43 44 45 46 47 48 49 50
000
ASUS42 KILM 291412
RWRILM
RWRILM
REGIONAL HOURLY WEATHER ROUNDUP
NATIONAL WEATHER SERVICE WILMINGTON NC
1000 AM EDT SUN MAR 29 2015

NOTE: "FAIR" INDICATES FEW OR NO CLOUDS BELOW 12,000 FEET WITH NO
SIGNIFICANT WEATHER AND/OR OBSTRUCTIONS TO VISIBILITY.

...............WFO WILMINGTON COUNTY WARNING AREA...............

......COASTAL NC AND SC COUNTIES......

CITY           SKY/WX    TMP DP  RH WIND       PRES   REMARKS
WILMINGTON     SUNNY     38  14  37 N13       30.45R WCI  30
SOUTHPORT      SUNNY     37  10  32 N10       30.45R WCI  30
N MYRTLE BEACH SUNNY     39  15  37 NE13      30.45R WCI  31
MYRTLE BEACH   SUNNY     39  16  38 N15       30.48R WCI  31

......INLAND NC AND SC COUNTIES.......

CITY           SKY/WX    TMP DP  RH WIND       PRES   REMARKS
LUMBERTON      SUNNY     39  13  34 N9        30.46R WCI  33
ELIZABETHTOWN  SUNNY     37  12  35 NE6       30.45S WCI  33
WHITEVILLE     SUNNY     38  11  32 N7        30.45R WCI  33
FLORENCE       SUNNY     40  12  32 NE13      30.46R WCI  32
DARLINGTON     SUNNY     39  16  38 N13       30.48R WCI  32

....................REST OF NORTH CAROLINA......................

.........EASTERN NC.........

CITY           SKY/WX    TMP DP  RH WIND       PRES   REMARKS
CAPE HATTERAS  SUNNY     36  15  42 NW12G25   30.39R WCI  28
JACKSONVILLE   SUNNY     36  10  35 N12G17    30.45R WCI  27
MOREHEAD CITY  SUNNY     37  16  42 N15       30.41S WCI  28
KENANSVILLE    SUNNY     36  13  39 N9        30.46R WCI  29
NEW BERN       SUNNY     37  15  40 N14       30.44R WCI  28
ELIZABETH CITY SUNNY     34  13  41 N14G21    30.41R WCI  25

.........CENTRAL NC.........

CITY           SKY/WX    TMP DP  RH WIND       PRES   REMARKS
RALEIGH DURHAM SUNNY     35  11  36 N9        30.44R WCI  28
ROCKY MOUNT    SUNNY     36  12  37 N12       30.44R WCI  28
ROANOKE RAPIDS NOT AVBL
FAYETTEVILLE   SUNNY     38  11  32 N13G21    30.45R WCI  30
HOFFMAN        SUNNY     37   8  30 N8        30.49R WCI  31

.........WESTERN NC.........

CITY           SKY/WX    TMP DP  RH WIND       PRES   REMARKS
CHARLOTTE      SUNNY     40   7  25 VRB5      30.44R
GREENSBORO     SUNNY     34   8  33 VRB3      30.41R
HICKORY        NOT AVBL
BOONE          NOT AVBL
ASHEVILLE      NOT AVBL

.....................REST OF SOUTH CAROLINA.....................

.........EASTERN SC.........

CITY           SKY/WX    TMP DP  RH WIND       PRES   REMARKS
CHARLESTON     SUNNY     43  16  33 N13       30.46R
BEAUFORT MCAS  SUNNY     44  17  33 NE8       30.45R
HILTON HEAD    SUNNY     46  25  42 N9        30.44R

.........CENTRAL SC.........

CITY           SKY/WX    TMP DP  RH WIND       PRES   REMARKS
COLUMBIA       SUNNY     41  10  28 NE8       30.46R
ORANGEBURG     SUNNY     42  13  30 E8        30.46R
SUMTER SHAW    SUNNY     39  12  33 NE10      30.45R WCI  32

.........WESTERN SC.........

CITY           SKY/WX    TMP DP  RH WIND       PRES   REMARKS
GREENVILLE     NOT AVBL
ROCK HILL      SUNNY     38  12  34 NE5       30.45R WCI  34
ANDERSON       SUNNY     41  14  33 E8        30.43R
CLEMSON        NOT AVBL
GREENWOOD      SUNNY     39  15  37 E7        30.45R WCI  34


...................COASTAL AND OFFSHORE REPORTS..................

................LOCAL PIERS AND NC RESERVE................


STATION/POSITION TIME  SKY/WX   TEMP    WIND        PRES    VSBY
                                AIR SEA DIR/SP/G
                 (UTC)          (F)     (DEG/KT/KT) (MB)    (MI)
JOHNY MRCER PIER 1300            35 56   10/ 13/ 17 1029.4R
NC RESRV MASNBRO NOT AVBL
OCEAN CREST PIER 1402            37 52  340/ 11/ 13 1030.2R
SPRINGMAID  PIER 1300            36 54   10/ 15/ 19 1030.9R


................COASTAL AND OFFSHORE BUOYS................


STATION/POSITION TIME  SKY/WX   TEMP    WIND        PRES    VSBY
                                AIR SEA DIR/SP/G
                 (UTC)          (F)     (DEG/KT/KT) (MB)    (MI)
DIMNDSHOAL 41025 NOT AVBL
CAPE LOOKOUT     1400            35     350/ 16/ 20 1029.2R
ONSLOW BAY 41036 NOT AVBL
5 WRITEBCH 41038 1300            37 55   20/ 16/ 17 1029.9R
MASONBORO  41110 1319               55                N/A
WVE H/P(F/S)=  3/ 5 WND WVE H/P(F/S)=  3/ 5

WILM HARBR 41108 1311               57                N/A
WVE H/P(F/S)=  3/ 6 WND WVE H/P(F/S)=  3/ 6

27WRITEBCH 41037 1300            36 64   40/ 16/ 19 1030.0R
FRYING PAN 41013 1350            41 64   10/ 17/ 21 1030.5R
WVE H/P(F/S)=  5/ 6 WND WVE H/P(F/S)=  5/ 6 SWL H/P/D(F/S/D)=  2/110/ 9

SUNST NRSH 41024 1300            37      40/ 12/ 14   N/A
CAPRS NRSH 41029 NOT AVBL
EDISTO     41004 1350            47 67   30/ 19/ 23 1029.4R
WVE H/P(F/S)=  6/ 6 WND WVE H/P(F/S)=  5/ 6 SWL H/P/D(F/S/D)=  2/ 9



..........OFFSHORE BUOYS BEYOND 100 NM OFFSHORE...........
.....IN A TRIANGLE---HAT TO BERMUDA TO BAHAMAS TO HAT.....


STATION/POSITION TIME  SKY/WX   TEMP    WIND        PRES    VSBY
                                AIR SEA DIR/SP/G
                 (UTC)          (F)     (DEG/KT/KT) (MB)    (MI)
150E HAT   41001 NOT AVBL
W BERMUDA  41048 1350            61 70  290/ 16/ 19 1019.5R
WVE H/P(F/S)=  9/10 WND WVE H/P(F/S)=  5/ 7 SWL H/P/D(F/S/D)=  7/280/10

ATLANTIC S 41049 1350            75 75  200/ 17/ 21 1019.0R
WVE H/P(F/S)=  6/ 7 WND WVE H/P(F/S)=  7/ 7 SWL H/P/D(F/S/D)=  2/130/10

E BAHAMAS  41046 1350            79 79  180/ 16/ 17 1019.5R
WVE H/P(F/S)=  6/ 8 WND WVE H/P(F/S)=  3/ 6 SWL H/P/D(F/S/D)=  5/ 90/ 8

NE BAHAMAS 41047 1350            71 74  310/ 12/ 16 1021.9R
WVE H/P(F/S)=  8/ 9 WND WVE H/P(F/S)=  3/ 5 SWL H/P/D(F/S/D)=  7/300/ 9

120E CANVRL41010 1320            64 76  330/ 16/ 21 1025.2R

END



USA.gov is the U.S. government's official web portal to all federal, state and local government web resources and services.